Location: Newark
(25.4800°N, 85.7200°E)
Time: 15:26:19
(UTC+00:00)

Explorer 11/Cluster Stage 4 - Pass Details

Date: 20 August 2019
Orbit: 467 x 1259 km, 28.8° (Epoch: 22 October)

Event Time Altitude Azimuth Distance (km) Brightness Sun altitude
Rises 10:27:01 0° 284° (WNW) 3,884 11.2 30.8°
Reaches altitude 10° 10:30:02 10° 283° (WNW) 2,810 10.9 30.1°
Maximum altitude 10:36:50 78° 198° (SSW) 885 7.4 28.6°
Drops below altitude 10° 10:42:10 10° 113° (ESE) 2,233 8.5 27.4°
Sets 10:44:20 0° 112° (ESE) 3,040 9.1 26.9°
